New Bedford, MA

8:14 AM EDT on August 17, 2017 (GMT -0400)
New Bedford Regional

Weather History for KEWB - November, 2013

Change the Weather History Date:

Sunday, November 24, 2013

  Actual Average Record
Temperature  
Mean Temperature 26 °F -  
Max Temperature 30 °F 49 °F 69 °F (1979)
Min Temperature 21 °F 34 °F 14 °F (2000)
Degree Days  
Heating Degree Days 40    
Moisture  
Dew Point 2 °F    
Average Humidity 37    
Maximum Humidity 51    
Minimum Humidity 21    
Precipitation  
Precipitation 0.00 in - - ()
Sea Level Pressure  
Sea Level Pressure 29.96 in    
Wind  
Wind Speed 17 mph (WNW)    
Max Wind Speed 26 mph    
Max Gust Speed 40 mph    
Visibility 10 miles    
Events      
Averages and records for this station are not official NWS values.
T = Trace of Precipitation, MM = Missing Value Source: NWS Daily Summary

Daily Weather History Graph

Daily Weather History Graph

Search for Another Location

Airport or City:

Trip Planner

Search our weather history database for the weather conditions in past years. The results will help you decide how hot, cold, wet, or windy it might be!

Date:

Astronomy

Nov. 24, 2013 Rise Set
Actual Time 6:43 AM EST 4:17 PM EST
Civil Twilight 6:13 AM EST 4:47 PM EST
Nautical Twilight 5:39 AM EST 5:21 PM EST
Astronomical Twilight 5:05 AM EST 5:54 PM EST
Moon 10:42 PM EST (11/24) 11:27 AM EST (11/24)
Length of Visible Light 10h 34m
Length of Day
9h 33m
Waning Gibbous, 61% of the Moon is Illuminated
Nov 24
Waning Gibbous
Nov 25
Last Quarter
Dec 2
New
Dec 9
First Quarter
Dec 17
Full

Hourly Weather History & Observations

Time (EST) Temp. Windchill Dew Point Humidity Pressure Visibility Wind Dir Wind Speed Gust Speed Precip Events Conditions
12:53 AM 30.0 °F 19.5 °F 12.0 °F 47% 29.81 in 10.0 mi WNW 13.8 mph 27.6 mph N/A   Clear
1:53 AM 28.9 °F 17.7 °F 12.0 °F 49% 29.82 in 10.0 mi WNW 15.0 mph 31.1 mph N/A   Clear
2:53 AM 27.0 °F 14.7 °F 9.0 °F 47% 29.82 in 10.0 mi WNW 16.1 mph 27.6 mph N/A   Clear
3:53 AM 26.1 °F 12.3 °F 6.1 °F 43% 29.83 in 10.0 mi WNW 19.6 mph 27.6 mph N/A   Clear
4:53 AM 25.0 °F 10.9 °F 7.0 °F 46% 29.83 in 10.0 mi WNW 19.6 mph 32.2 mph N/A   Clear
5:53 AM 24.1 °F 12.0 °F 8.1 °F 51% 29.84 in 10.0 mi WNW 13.8 mph 36.8 mph N/A   Clear
6:53 AM 23.0 °F 8.7 °F 7.0 °F 50% 29.87 in 10.0 mi WNW 18.4 mph 28.8 mph N/A   Partly Cloudy
7:53 AM 24.1 °F 9.4 °F 7.0 °F 48% 29.88 in 10.0 mi West 20.7 mph 29.9 mph N/A   Scattered Clouds
8:53 AM 24.1 °F 9.4 °F 6.1 °F 46% 29.90 in 10.0 mi WNW 20.7 mph 29.9 mph N/A   Partly Cloudy
9:53 AM 25.0 °F 8.9 °F 5.0 °F 43% 29.91 in 10.0 mi West 26.5 mph 36.8 mph N/A   Clear
10:53 AM 26.1 °F 12.0 °F 3.0 °F 37% 29.91 in 10.0 mi WNW 20.7 mph 32.2 mph N/A   Clear
11:53 AM 26.1 °F 13.6 °F 1.0 °F 34% 29.92 in 10.0 mi WNW 16.1 mph 26.5 mph N/A   Clear
12:53 PM 27.0 °F 14.3 °F -0.0 °F 31% 29.91 in 10.0 mi NW 17.3 mph 32.2 mph N/A   Clear
1:53 PM 27.0 °F 12.5 °F -0.0 °F 31% 29.94 in 10.0 mi NW 23.0 mph 40.3 mph N/A   Clear
2:53 PM 28.0 °F 14.3 °F -4.0 °F 25% 29.96 in 10.0 mi NW 21.9 mph 35.7 mph N/A   Clear
3:53 PM 27.0 °F 13.9 °F -9.0 °F 21% 29.99 in 10.0 mi NW 18.4 mph 29.9 mph N/A   Clear
4:53 PM 26.1 °F 15.0 °F -4.0 °F 27% 30.03 in 10.0 mi WNW 12.7 mph 28.8 mph N/A   Clear
5:53 PM 25.0 °F 10.6 °F -5.1 °F 27% 30.07 in 10.0 mi WNW 20.7 mph 40.3 mph N/A   Clear
6:53 PM 24.1 °F 10.1 °F -4.0 °F 29% 30.10 in 10.0 mi WNW 18.4 mph 33.4 mph N/A   Clear
7:53 PM 24.1 °F 12.5 °F -2.9 °F 31% 30.11 in 10.0 mi WNW 12.7 mph 34.5 mph N/A   Clear
8:53 PM 24.1 °F 11.5 °F -2.9 °F 31% 30.13 in 10.0 mi WNW 15.0 mph 29.9 mph N/A   Clear
9:53 PM 23.0 °F 8.7 °F -2.0 °F 34% 30.14 in 10.0 mi WNW 18.4 mph 31.1 mph N/A   Clear
10:53 PM 21.9 °F 9.8 °F -2.0 °F 35% 30.17 in 10.0 mi WNW 12.7 mph 25.3 mph N/A   Clear
11:53 PM 21.9 °F 8.2 °F -0.9 °F 37% 30.20 in 10.0 mi WNW 16.1 mph 21.9 mph N/A   Clear